Regional Weather Roundup
Issued by NWS

Home | Current Version | Previous Version | Text Only | Print | Product List | Glossary On
Versions: 1 2 3 4 5 6 7 8 9 10 11 12 13 14 15 16 17 18 19 20 21 22 23 24 25 26 27 28 29 30 31 32 33 34 35 36 37 38 39 40 41 42 43 44 45 46 47 48 49 50
000
ASUS43 KLSX 241610
RWRMO

WEATHER SUMMARY FOR MISSOURI
NATIONAL WEATHER SERVICE SPRINGFIELD MO
1100 AM CDT TUE MAY 24 2016

NOTE: "FAIR" INDICATES FEW OR NO CLOUDS BELOW 12,000 FEET WITH NO
       SIGNIFICANT WEATHER AND/OR OBSTRUCTIONS TO VISIBILITY.
       CURRENT SKY AND/OR WEATHER CONDITIONS ARE NOT AVAILABLE FOR
       CHILLICOTHE AND FARMINGTON.

MOZ001>031-035>038-043-044-053-054-241700-
...NORTHERN AND WESTERN MISSOURI...

CITY           SKY/WX    TMP DP  RH WIND       PRES   REMARKS
KANSAS CTY INT CLOUDY    67  63  87 W7        29.99S
KANSAS C DTWN  LGT RAIN  68  64  87 NW3       29.98F
LEE`S SUMMIT   CLOUDY    68  64  87 NW13      29.98R
ST JOSEPH      CLOUDY    68  59  73 SW7       29.97F
CHILLICOTHE      N/A     72  66  81 W10       30.00R
KIRKSVILLE     CLOUDY    72  65  78 SE14      29.95F

$$
MOZ066>068-077>081-088>096-101>105-241700-
...SOUTHWEST MISSOURI...

CITY           SKY/WX    TMP DP  RH WIND       PRES   REMARKS
SPRINGFIELD    MOSUNNY   75  66  73 S14       29.96F
JOPLIN         CLOUDY    72  69  90 SW6       29.96R
BRANSON        PTSUNNY   77  68  73 S7        29.99F

$$
MOZ032>034-039>042-045>050-055>058-069>072-241700-
...CENTRAL MISSOURI...

CITY           SKY/WX    TMP DP  RH WIND       PRES   REMARKS
COLUMBIA       TSTM      67  65  93 W6        30.01R FOG
JEFFERSON CITY CLOUDY    73  63  70 W6        30.01R THUNDER
ROLLA          CLOUDY    72  65  78 S12       30.00S THUNDER
SEDALIA        PTSUNNY   72  67  84 S12       29.99S
WHITEMAN AFB   CLOUDY    72  71  98 S13       29.95F
WARRENSBURG    CLOUDY    70  64  83 SE6       29.96R
OSAGE BEACH      N/A    N/A N/A N/A SE3       30.00

$$
MOZ051-052-059>065-241700-
...EAST CENTRAL MISSOURI...

CITY           SKY/WX    TMP DP  RH WIND       PRES   REMARKS
ST LOUIS INTL  PTSUNNY   77  58  51 S9        30.02S
SPIRIT OF STL  PTSUNNY   79  63  57 S8        30.00R
ST CHARLES     SUNNY     79  62  56 S12       30.00S

$$
MOZ072>076-082>087-097>100-106>115-241700-
...SOUTH CENTRAL AND SOUTHEAST MISSOURI...

CITY           SKY/WX    TMP DP  RH WIND       PRES   REMARKS
CAPE GIRARDEAU CLOUDY    75  62  64 S7        30.05S
FARMINGTON     CLOUDY    75  63  66 SW12      30.05S
POPLAR BLUFF   TSTM      68  62  81 SW3       30.05S
WEST PLAINS    LGT RAIN  71  63  75 SE5       30.05S

$$



USA.gov is the U.S. government's official web portal to all federal, state and local government web resources and services.